Location: Cambroso
(45.2833°N, 12.0850°E)
Time: 11:57:22
(UTC+00:00)

ATLAS 5 CENTAUR R/B - Pass Details

Date: 21 January 2021
Orbit: 511 x 1147 km, 63.3° (Epoch: 16 February)

Event Time Altitude Azimuth Distance (km) Brightness Sun altitude
Rises 18:22:10 0° 280° (W) 2,750 6.2 -24.1°
Reaches altitude 10° 18:25:19 10° 307° (NW) 1,949 4.7 -24.7°
Maximum altitude 18:27:36 14° 339° (NNW) 1,785 4.1 -25.1°
Enters shadow 18:29:05 12° 359° (N) 1,933 4.1 -25.3°
